Weather History for Bolton Field, OH

Change the Weather History Date:

Monday, June 24, 2013

  Actual Average Record
Temperature  
Mean Temperature 73 °F -  
Max Temperature 84 °F 81 °F 93 °F (2002)
Min Temperature 62 °F 62 °F 33 °F (2002)
Cooling Degree Days 8    
Growing Degree Days 23 (Base 50)    
Moisture  
Dew Point 66 °F    
Average Humidity 80    
Maximum Humidity 98    
Minimum Humidity 55    
Precipitation  
Precipitation 0.00 in - - ()
Sea Level Pressure  
Sea Level Pressure 30.11 in    
Wind  
Wind Speed 5 mph (SSW)    
Max Wind Speed 12 mph    
Max Gust Speed 20 mph    
Visibility 9 miles    
Events Rain    
Averages and records for this station are not official NWS values.
T = Trace of Precipitation, MM = Missing Value Source: NWS Daily Summary

Daily Weather History Graph

Daily Weather History Graph

Search for Another Location

Airport:

Trip Planner

Search our weather history database for the weather conditions in past years. The results will help you decide how hot, cold, wet, or windy it might be!

Date:

Astronomy

Jun. 24, 2013 Rise Set
Actual Time 6:05 AM EDT 9:05 PM EDT
Civil Twilight 5:32 AM EDT 9:37 PM EDT
Nautical Twilight 4:50 AM EDT 10:19 PM EDT
Astronomical Twilight 4:02 AM EDT 11:07 PM EDT
Moon 10:06 PM EDT (6/24) 7:31 AM EDT (6/24)
Length of Visible Light 16h 05m
Length of Day
14h 59m
Full, 98% of the Moon is Illuminated
Jun 24
Full
Jun 30
Last Quarter
Jul 8
New
Jul 15
First Quarter
Jul 22
Full

Hourly Weather History & Observations

Time (EDT) Temp. Heat Index Dew Point Humidity Pressure Visibility Wind Dir Wind Speed Gust Speed Precip Events Conditions
12:15 AM 67.3 °F - 63.5 °F 88% 30.14 in 10.0 mi South 3.5 mph - N/A   Clear
12:35 AM 67.8 °F - 63.0 °F 84% 30.15 in 10.0 mi SSW 5.8 mph - N/A   Clear
12:55 AM 67.6 °F - 63.0 °F 85% 30.14 in 10.0 mi South 4.6 mph - N/A   Clear
1:15 AM 68.7 °F - 63.5 °F 83% 30.14 in 10.0 mi SSW 4.6 mph - N/A   Clear
1:35 AM 68.0 °F - 63.5 °F 85% 30.14 in 10.0 mi South 6.9 mph - N/A   Clear
1:55 AM 68.9 °F - 63.5 °F 83% 30.13 in 10.0 mi South 5.8 mph - N/A   Clear
2:15 AM 68.5 °F - 63.0 °F 82% 30.13 in 10.0 mi Calm Calm - N/A   Clear
2:35 AM 67.5 °F - 62.8 °F 85% 30.13 in 10.0 mi WSW 3.5 mph - N/A   Clear
2:55 AM 66.2 °F - 62.8 °F 89% 30.13 in 10.0 mi WSW 3.5 mph - N/A   Clear
3:15 AM 66.6 °F - 62.8 °F 88% 30.12 in 10.0 mi Calm Calm - N/A   Clear
3:35 AM 66.2 °F - 62.6 °F 88% 30.12 in 10.0 mi SW 3.5 mph - N/A   Clear
3:55 AM 65.5 °F - 62.6 °F 90% 30.11 in 10.0 mi SW 3.5 mph - N/A   Clear
4:15 AM 65.3 °F - 62.8 °F 92% 30.12 in 10.0 mi Calm Calm - N/A   Clear
4:35 AM 64.9 °F - 62.8 °F 93% 30.11 in 10.0 mi Calm Calm - N/A   Clear
4:55 AM 64.6 °F - 62.8 °F 94% 30.12 in 10.0 mi Calm Calm - N/A   Clear
5:15 AM 65.1 °F - 63.1 °F 93% 30.12 in 7.0 mi Calm Calm - N/A   Clear
5:35 AM 63.9 °F - 63.0 °F 97% 30.11 in 7.0 mi Calm Calm - N/A   Clear
5:55 AM 63.3 °F - 62.8 °F 98% 30.12 in 7.0 mi Calm Calm - N/A   Clear
6:15 AM 62.8 °F - 62.2 °F 98% 30.13 in 5.0 mi Calm Calm - N/A   Clear
6:35 AM 63.5 °F - 62.8 °F 97% 30.13 in 5.0 mi Calm Calm - N/A   Clear
6:55 AM 64.8 °F - 63.5 °F 96% 30.14 in 5.0 mi SSE 3.5 mph - N/A   Clear
7:15 AM 66.7 °F - 64.6 °F 93% 30.15 in 7.0 mi South 3.5 mph - N/A   Clear
7:20 AM 66.2 °F - 64.4 °F 94% 30.15 in 7.0 mi Calm Calm - N/A   Clear
8:55 AM 75.2 °F - 66.2 °F 73% 30.17 in 10.0 mi South 5.8 mph - N/A   Clear
9:50 AM 77.0 °F - 68.0 °F 74% 30.17 in 10.0 mi South 8.1 mph - N/A   Clear
10:50 AM 80.6 °F 83.9 °F 69.8 °F 70% 30.16 in 7.0 mi SSW 5.8 mph - N/A   Clear
11:50 AM 82.4 °F 86.3 °F 69.8 °F 66% 30.16 in 10.0 mi SW 8.1 mph - N/A   Clear
12:50 PM 82.4 °F 84.6 °F 66.2 °F 58% 30.14 in 10.0 mi SW 10.4 mph - N/A   Scattered Clouds
1:50 PM 78.8 °F - 64.4 °F 61% 30.13 in 10.0 mi West 11.5 mph - N/A Rain Light Rain
2:50 PM 82.4 °F 86.3 °F 69.8 °F 66% 30.10 in 10.0 mi WSW 6.9 mph - N/A   Mostly Cloudy
3:50 PM 82.4 °F 86.3 °F 69.8 °F 66% 30.08 in 10.0 mi SW 11.5 mph - N/A   Clear
4:50 PM 84.2 °F 88.4 °F 69.8 °F 62% 30.07 in 10.0 mi South 9.2 mph - N/A   Scattered Clouds
5:50 PM 84.2 °F 86.6 °F 66.2 °F 55% 30.05 in 10.0 mi SSW 11.5 mph 19.6 mph N/A   Clear
6:50 PM 82.4 °F 86.3 °F 69.8 °F 66% 30.03 in 10.0 mi SW 11.5 mph - N/A   Scattered Clouds
7:35 PM 82.2 °F 85.3 °F 68.5 °F 63% 30.04 in 10.0 mi SW 8.1 mph - N/A   Scattered Clouds
7:55 PM 81.9 °F 85.0 °F 68.7 °F 64% 30.05 in 10.0 mi SW 6.9 mph - N/A   Mostly Cloudy
8:15 PM 80.4 °F 83.4 °F 68.9 °F 68% 30.06 in 10.0 mi SW 8.1 mph - N/A   Scattered Clouds
8:35 PM 79.3 °F - 68.9 °F 70% 30.06 in 10.0 mi SW 5.8 mph - N/A   Clear
8:55 PM 78.1 °F - 68.5 °F 72% 30.06 in 10.0 mi SSW 6.9 mph - N/A   Clear
9:15 PM 77.0 °F - 68.4 °F 75% 30.05 in 10.0 mi South 6.9 mph - N/A   Clear
9:35 PM 77.0 °F - 68.4 °F 75% 30.04 in 10.0 mi South 6.9 mph - N/A   Clear
9:55 PM 76.5 °F - 68.7 °F 77% 30.05 in 10.0 mi SSW 5.8 mph - N/A   Clear
10:15 PM 75.4 °F - 68.2 °F 78% 30.06 in 10.0 mi SSW 6.9 mph - N/A   Clear
10:35 PM 75.2 °F - 68.0 °F 78% 30.07 in 10.0 mi SSW 9.2 mph - N/A   Clear
10:55 PM 74.3 °F - 67.5 °F 79% 30.08 in 10.0 mi SSW 6.9 mph - N/A   Clear
11:15 PM 73.9 °F - 67.1 °F 79% 30.08 in 10.0 mi SSW 5.8 mph - N/A   Clear
11:35 PM 72.7 °F - 67.3 °F 83% 30.09 in 10.0 mi SSW 5.8 mph - N/A   Clear
11:55 PM 72.9 °F - 67.3 °F 83% 30.08 in 10.0 mi South 5.8 mph - N/A   Clear